Weather History for Waco, TX

Change the Weather History Date:

Wednesday, October 6, 2010

  Actual Average Record
Temperature  
Mean Temperature 62 °F 71 °F  
Max Temperature 82 °F 83 °F 97 °F (1956)
Min Temperature 41 °F 59 °F 41 °F (2010)
Degree Days  
Heating Degree Days 3 1  
Month to date heating degree days 12 6  
Since 1 July heating degree days 12 12  
Cooling Degree Days 0 7  
Month to date cooling degree days 15 46  
Year to date cooling degree days 3005 2640  
Growing Degree Days 12 (Base 50)    
Moisture  
Dew Point 40 °F    
Average Humidity 53    
Maximum Humidity 89    
Minimum Humidity 16    
Precipitation  
Precipitation 0.00 in 0.11 in 3.17 in (1984)
Month to date precipitation 0.00 0.67  
Year to date precipitation 37.29 25.89  
Snow  
Snow 0.00 in 0.00 in 0.00 in ()
Month to date snowfall 0.0 0.0  
Since 1 July snowfall 0.0 0.0  
Since 1 September snowfall 0.0 0.0  
Snow Depth 0.00 in    
Sea Level Pressure  
Sea Level Pressure 30.27 in    
Wind  
Wind Speed 1 mph (SSW)    
Max Wind Speed 8 mph    
Max Gust Speed 14 mph    
Visibility 10 miles    
Events      
T = Trace of Precipitation, MM = Missing Value Source: NWS Daily Summary

Daily Weather History Graph

Daily Weather History Graph

Search for Another Location

Airport:

Trip Planner

Search our weather history database for the weather conditions in past years. The results will help you decide how hot, cold, wet, or windy it might be!

Date:

Astronomy

Oct. 06, 2010 Rise Set
Actual Time 7:25 AM CDT 7:07 PM CDT
Civil Twilight 7:01 AM CDT 7:31 PM CDT
Nautical Twilight 6:33 AM CDT 8:00 PM CDT
Astronomical Twilight 6:05 AM CDT 8:28 PM CDT
Moon 6:06 AM CDT (10/6) 6:11 PM CDT (10/6)
Length of Visible Light 12h 30m
Length of Day
11h 41m
Waning Crescent, 2% of the Moon is Illuminated
Oct 6
Waning Crescent
Oct 7
New
Oct 14
First Quarter
Oct 22
Full
Oct 30
Last Quarter

Hourly Weather History & Observations

Time (CDT) Temp. Windchill Dew Point Humidity Pressure Visibility Wind Dir Wind Speed Gust Speed Precip Events Conditions
12:51 AM 51.1 °F - 42.1 °F 71% 30.30 in 10.0 mi Calm Calm - N/A   Clear
1:51 AM 51.1 °F - 41.0 °F 68% 30.29 in 10.0 mi Calm Calm - N/A   Clear
3:51 AM 48.0 °F - 39.9 °F 74% 30.28 in 10.0 mi Calm Calm - N/A   Clear
4:51 AM 45.0 °F - 39.9 °F 82% 30.28 in 10.0 mi Calm Calm - N/A   Clear
5:51 AM 46.0 °F - 39.9 °F 79% 30.29 in 10.0 mi Calm Calm - N/A   Clear
6:51 AM 43.0 °F - 39.0 °F 86% 30.30 in 10.0 mi Calm Calm - N/A   Clear
7:51 AM 44.1 °F 42.5 °F 39.9 °F 85% 30.32 in 10.0 mi NW 3.5 mph - N/A   Clear
8:51 AM 55.9 °F - 39.9 °F 55% 30.34 in 10.0 mi Calm Calm - N/A   Clear
9:51 AM 61.0 °F - 43.0 °F 52% 30.35 in 10.0 mi Calm Calm - N/A   Clear
10:51 AM 69.1 °F - 44.1 °F 40% 30.35 in 10.0 mi Calm Calm - N/A   Clear
11:51 AM 75.0 °F - 37.9 °F 26% 30.34 in 10.0 mi SSE 4.6 mph - N/A   Clear
12:51 PM 75.9 °F - 36.0 °F 23% 30.32 in 10.0 mi South 3.5 mph - N/A   Clear
1:51 PM 78.1 °F - 37.0 °F 23% 30.28 in 10.0 mi Calm Calm - N/A   Clear
2:51 PM 80.1 °F - 36.0 °F 20% 30.25 in 10.0 mi Calm Calm - N/A   Clear
3:51 PM 81.0 °F - 35.1 °F 19% 30.22 in 10.0 mi Calm Calm - N/A   Clear
4:51 PM 82.0 °F - 35.1 °F 18% 30.20 in 10.0 mi NNE 3.5 mph - N/A   Clear
5:51 PM 81.0 °F - 30.9 °F 16% 30.19 in 10.0 mi Calm Calm - N/A   Clear
6:51 PM 78.1 °F - 36.0 °F 22% 30.20 in 10.0 mi Calm Calm - N/A   Clear
7:51 PM 62.1 °F - 43.0 °F 50% 30.20 in 10.0 mi Calm Calm - N/A   Clear
8:51 PM 59.0 °F - 45.0 °F 60% 30.21 in 10.0 mi Calm Calm - N/A   Clear
9:51 PM 54.0 °F - 46.0 °F 75% 30.22 in 10.0 mi SW 4.6 mph - N/A   Clear
10:51 PM 57.0 °F - 45.0 °F 64% 30.22 in 10.0 mi Calm Calm - N/A   Clear
11:51 PM 55.0 °F - 45.0 °F 69% 30.22 in 10.0 mi Calm Calm - N/A   Clear